Starlink 4792

decayed
NORAD ID: 53862 Int'l Des: 2022-114 Owner: SPXS Country: US Constellation: starlink
LEOCIRCULAR
Group

About Starlink 4792

Description loading...

Altitude History

Altitude vs Time

uPlot chart will show altitude changes over time

Two-Line Element Set

1 53862U 22114AW 24364.62639397 .10102167 12401-4 40902-3 0 9996
2 53862 53.1922 54.5479 0003758 145.8290 346.3191 16.43767329127199
Epoch: Dec 29, 2024 • Age: 10595 hours

Current Status

Position data unavailable
Launch Date Sep 19, 2022
Age 3.4 years
Decay Date Dec 29, 2024
Type internet

Technical Details

Classification Payload
Mass 305.00 kg
Dry Mass 290.00 kg
Total Mass 305.00 kg
Length 0.20 m
Diameter 2.80 m
Span 9.00 m
Shape Box + pan
Manufacturer SPXS
Bus Type Starlink
Phase Status Unknown Transfer Status
Owner/State SPXS/US

Large Constellations

Loading constellations...